Weather History for Avalon, VC

Change the Weather History Date:

Tuesday, August 13, 2013

  Actual Average (YMML) Record (YMML)
Temperature  
Mean Temperature 52 °F -  
Max Temperature 61 °F 55 °F 62 °F (2006)
Min Temperature 42 °F 41 °F 35 °F (2011)
Degree Days  
Heating Degree Days 14    
Growing Degree Days 2 (Base 50)    
Moisture  
Dew Point 43 °F    
Average Humidity 71    
Maximum Humidity 93    
Minimum Humidity 45    
Precipitation  
Precipitation 0.00 in - - ()
Sea Level Pressure  
Sea Level Pressure 29.76 in    
Wind  
Wind Speed 16 mph ()    
Max Wind Speed 24 mph    
Max Gust Speed 34 mph    
Visibility 6.1 miles    
Events Rain    
Averages and records for this station are not official NWS values.
T = Trace of Precipitation, MM = Missing Value Source: Averaged Metar Reports

Daily Weather History Graph

Daily Weather History Graph

Search for Another Location

Airport:

Trip Planner

Search our weather history database for the weather conditions in past years. The results will help you decide how hot, cold, wet, or windy it might be!

Date:

Astronomy

Aug. 13, 2013 Rise Set
Actual Time 7:09 AM AEST 5:44 PM AEST
Civil Twilight 6:42 AM AEST 6:11 PM AEST
Nautical Twilight 6:11 AM AEST 6:42 PM AEST
Astronomical Twilight 5:40 AM AEST 7:13 PM AEST
Moon 10:14 AM AEST (8/13) No Moon Set
Length of Visible Light 11h 29m
Length of Day
10h 34m
Waxing Crescent, 35% of the Moon is Illuminated
Aug 13
Waxing Crescent
Aug 14
First Quarter
Aug 21
Full
Aug 28
Last Quarter
Sep 5
New

Hourly Weather History & Observations

Time (AEST) Temp. Windchill Dew Point Humidity Pressure Visibility Wind Dir Wind Speed Gust Speed Precip Events Conditions
12:00 AM 46 °F - 42 °F 80% 29.69 in - North 12.7 mph - -   Overcast
12:00 AM 46.4 °F 40.7 °F 41.0 °F 81% 29.68 in 6.2 mi North 12.7 mph - N/A   Overcast
1:00 AM 48.2 °F - 41.0 °F 76% 29.68 in 6.2 mi NW 16.1 mph - N/A   Mostly Cloudy
1:30 AM 48.2 °F - 41.0 °F 76% 29.71 in 6.2 mi NW 16.1 mph - N/A Rain Light Rain Showers
2:00 AM 48.2 °F - 42.8 °F 82% 29.71 in 6.2 mi NW 17.3 mph - N/A   Overcast
2:12 AM 48.2 °F - 42.8 °F 82% 29.71 in 6.2 mi NW 18.4 mph 31.1 mph N/A   Overcast
2:30 AM 48.2 °F - 42.8 °F 82% 29.71 in 6.2 mi WNW 21.9 mph - N/A   Mostly Cloudy
3:00 AM 48.2 °F - 42.8 °F 82% 29.74 in 6.2 mi WNW 23.0 mph - N/A   Mostly Cloudy
3:13 AM 48.2 °F - 42.8 °F 82% 29.74 in 3.7 mi WNW 23.0 mph - N/A Rain Light Rain
3:24 AM 46.4 °F 38.5 °F 44.6 °F 93% 29.74 in 6.2 mi WNW 21.9 mph - N/A Rain Light Rain Showers
3:30 AM 46.4 °F 38.7 °F 42.8 °F 87% 29.74 in 6.2 mi WNW 20.7 mph - N/A Rain Light Rain Showers
4:00 AM 46.4 °F 39.5 °F 42.8 °F 87% 29.74 in 6.2 mi WNW 17.3 mph - N/A   Unknown
4:30 AM 44.6 °F 38.4 °F 42.8 °F 93% 29.77 in 6.2 mi WNW 12.7 mph - N/A   Unknown
5:00 AM 44.6 °F 37.4 °F 42.8 °F 93% 29.77 in 6.2 mi WNW 16.1 mph - N/A   Unknown
5:30 AM 44.6 °F 37.8 °F 42.8 °F 93% 29.80 in 6.2 mi WNW 15.0 mph - N/A   Unknown
6:00 AM 44.6 °F 38.8 °F 41.0 °F 87% 29.80 in 6.2 mi NW 11.5 mph - N/A   Unknown
6:30 AM 44.6 °F 39.2 °F 41.0 °F 87% 29.80 in 6.2 mi NNW 10.4 mph - N/A   Unknown
7:00 AM 42.8 °F 38.0 °F 39.2 °F 87% 29.83 in 6.2 mi NNW 8.1 mph - N/A   Unknown
7:30 AM 42.8 °F 37.5 °F 41.0 °F 93% 29.83 in 6.2 mi NNE 9.2 mph - N/A   Unknown
8:00 AM 46.4 °F 41.1 °F 41.0 °F 81% 29.83 in 6.2 mi NNW 11.5 mph - N/A   Unknown
8:30 AM 48.2 °F - 41.0 °F 76% 29.83 in 6.2 mi NNW 13.8 mph - N/A   Scattered Clouds
9:00 AM 50.0 °F - 42.8 °F 76% 29.83 in 6.2 mi NNW 16.1 mph - N/A   Unknown
9:30 AM 51.8 °F - 42.8 °F 71% 29.83 in 6.2 mi NNW 17.3 mph - N/A   Unknown
10:00 AM 53.6 °F - 42.8 °F 67% 29.83 in 6.2 mi NNW 19.6 mph - N/A   Unknown
10:30 AM 55.4 °F - 44.6 °F 67% 29.83 in 6.2 mi North 15.0 mph - N/A   Scattered Clouds
11:00 AM 55.4 °F - 42.8 °F 63% 29.83 in 6.2 mi North 16.1 mph - N/A   Overcast
11:30 AM 55.4 °F - 41.0 °F 58% 29.83 in 6.2 mi NW 17.3 mph - N/A   Mostly Cloudy
12:00 PM 57.2 °F - 42.8 °F 59% 29.80 in 6.2 mi NW 21.9 mph - N/A   Scattered Clouds
12:30 PM 59.0 °F - 42.8 °F 55% 29.80 in 6.2 mi NNW 18.4 mph - N/A   Scattered Clouds
1:00 PM 57.2 °F - 42.8 °F 59% 29.80 in 6.2 mi NNW 18.4 mph 29.9 mph N/A   Mostly Cloudy
1:30 PM 59.0 °F - 42.8 °F 55% 29.77 in 6.2 mi NNW 18.4 mph - N/A   Mostly Cloudy
2:00 PM 59.0 °F - 42.8 °F 55% 29.77 in 6.2 mi NNW 19.6 mph - N/A   Mostly Cloudy
2:30 PM 60.8 °F - 44.6 °F 55% 29.74 in 6.2 mi NNW 20.7 mph - N/A   Mostly Cloudy
3:00 PM 61 °F - 45 °F 45% 29.76 in - NNW 21.9 mph - -   Overcast
3:00 PM 60.8 °F - 44.6 °F 55% 29.74 in 6.2 mi NNW 21.9 mph - N/A   Scattered Clouds
3:11 PM 60.8 °F - 42.8 °F 52% 29.74 in 6.2 mi NNW 21.9 mph 33.4 mph N/A   Unknown
3:30 PM 60.8 °F - 44.6 °F 55% 29.74 in 6.2 mi NNW 21.9 mph - N/A   Scattered Clouds
4:00 PM 60.8 °F - 46.4 °F 59% 29.74 in 6.2 mi NNW 21.9 mph - N/A   Scattered Clouds
4:30 PM 60.8 °F - 46.4 °F 59% 29.74 in 6.2 mi North 17.3 mph - N/A   Mostly Cloudy
5:00 PM 59.0 °F - 44.6 °F 59% 29.74 in 6.2 mi North 21.9 mph 33.4 mph N/A   Mostly Cloudy
5:30 PM 57.2 °F - 46.4 °F 67% 29.74 in 6.2 mi North 18.4 mph - N/A   Overcast
6:00 PM 57 °F - 45 °F 54% 29.75 in - NNW 19.6 mph - -   Overcast
6:00 PM 57.2 °F - 44.6 °F 63% 29.74 in 6.2 mi NNW 19.6 mph - N/A   Mostly Cloudy
7:00 PM 57.2 °F - 46.4 °F 67% 29.74 in 6.2 mi North 21.9 mph - N/A   Unknown
7:30 PM 57.2 °F - 44.6 °F 63% 29.74 in 6.2 mi North 21.9 mph - N/A   Unknown
8:00 PM 57.2 °F - 46.4 °F 67% 29.71 in 6.2 mi North 24.2 mph - N/A   Unknown
8:32 PM 55.4 °F - 44.6 °F 67% 29.71 in 6.2 mi North 23.0 mph 34.5 mph N/A   Unknown
9:00 PM 56 °F - 45 °F 56% 29.72 in - North 19.6 mph - -  
9:00 PM 55.4 °F - 44.6 °F 67% 29.71 in 6.2 mi North 19.6 mph - N/A   Unknown
9:30 PM 55.4 °F - 44.6 °F 67% 29.71 in 6.2 mi North 19.6 mph - N/A   Unknown
10:00 PM 55.4 °F - 44.6 °F 67% 29.71 in 6.2 mi North 19.6 mph - N/A   Unknown
10:30 PM 53.6 °F - 44.6 °F 72% 29.71 in 6.2 mi North 17.3 mph - N/A   Mostly Cloudy
11:00 PM 53.6 °F - 44.6 °F 72% 29.71 in 6.2 mi North 17.3 mph - N/A   Overcast